GAF992 EHEH-EDDK

Flight info

Callsign GAF992
Flight time 1h 6m
Altitude 15000
Route EHV STAY01/0030 EHV LNO M170 KENUM/N0335F130 T862 ERUKI
Aircraft A359/H-SDE2E3GHIJ3J4J5LM1ORWXY/LB1D1

Departure

Time 2026-04-26 13:36
Airport Eindhoven Airport (EHEH)

Arrival

Time 2026-04-26 14:43
Airport Cologne Bonn Airport (EDDK)
Time Latitude Longitude Altitude Speed Heading
2026-04-26 13:13 51.45298 5.38444 85 ft 0 kts 125°
2026-04-26 13:26 51.45311 5.38416 86 ft 4 kts 128°
2026-04-26 13:26 51.45323 5.38385 85 ft 4 kts 74°
2026-04-26 13:26 51.45313 5.38351 85 ft 4 kts 50°
2026-04-26 13:26 51.45293 5.38323 85 ft 4 kts 33°
2026-04-26 13:27 51.45286 5.38316 86 ft 0 kts 35°
2026-04-26 13:29 51.45295 5.38327 85 ft 4 kts 36°
2026-04-26 13:30 51.45332 5.38369 86 ft 9 kts 35°
2026-04-26 13:30 51.45356 5.38394 84 ft 7 kts 27°
2026-04-26 13:30 51.45421 5.38366 86 ft 11 kts 314°
2026-04-26 13:30 51.45476 5.38251 83 ft 12 kts 306°
2026-04-26 13:31 51.45487 5.38226 86 ft 0 kts 306°
2026-04-26 13:31 51.45512 5.38170 87 ft 13 kts 306°
2026-04-26 13:31 51.45568 5.38043 89 ft 15 kts 304°
2026-04-26 13:31 51.45616 5.37888 83 ft 14 kts 266°
2026-04-26 13:32 51.45545 5.37767 87 ft 18 kts 215°
2026-04-26 13:32 51.45431 5.37639 85 ft 22 kts 215°
2026-04-26 13:32 51.45289 5.37480 87 ft 27 kts 215°
2026-04-26 13:32 51.45124 5.37294 85 ft 31 kts 215°
2026-04-26 13:33 51.44986 5.37140 86 ft 21 kts 215°
2026-04-26 13:33 51.44856 5.36995 85 ft 25 kts 216°
2026-04-26 13:33 51.44709 5.36833 87 ft 22 kts 215°
2026-04-26 13:33 51.44602 5.36713 86 ft 20 kts 215°
2026-04-26 13:34 51.44484 5.36578 85 ft 19 kts 216°
2026-04-26 13:34 51.44365 5.36444 85 ft 23 kts 213°
2026-04-26 13:34 51.44225 5.36289 86 ft 26 kts 214°
2026-04-26 13:34 51.44123 5.36177 86 ft 22 kts 215°
2026-04-26 13:35 51.44004 5.36081 85 ft 13 kts 174°
2026-04-26 13:35 51.43946 5.36205 86 ft 16 kts 90°
2026-04-26 13:35 51.44010 5.36328 86 ft 3 kts 36°
2026-04-26 13:36 51.44093 5.36422 86 ft 56 kts 35°
2026-04-26 13:36 51.44697 5.37107 87 ft 153 kts 35°
2026-04-26 13:36 51.45649 5.38177 1014 ft 167 kts 36°
2026-04-26 13:36 51.46619 5.39260 2103 ft 179 kts 35°
2026-04-26 13:37 51.47770 5.40026 2709 ft 182 kts
2026-04-26 13:37 51.48960 5.39467 3402 ft 187 kts 327°
2026-04-26 13:37 51.49888 5.37738 3259 ft 220 kts 296°
2026-04-26 13:37 51.50235 5.35301 3027 ft 238 kts 276°
2026-04-26 13:38 51.50323 5.32526 3012 ft 256 kts 273°
2026-04-26 13:38 51.50374 5.29697 2993 ft 253 kts 273°
2026-04-26 13:38 51.50072 5.26934 3003 ft 253 kts 244°
2026-04-26 13:38 51.49010 5.24735 2998 ft 251 kts 220°
2026-04-26 13:39 51.47658 5.22925 3000 ft 254 kts 217°
2026-04-26 13:39 51.46272 5.21166 2994 ft 254 kts 216°
2026-04-26 13:39 51.44886 5.19408 2996 ft 255 kts 217°
2026-04-26 13:39 51.43489 5.17659 2854 ft 254 kts 216°
2026-04-26 13:40 51.42575 5.16512 2449 ft 250 kts 217°
2026-04-26 13:40 51.41245 5.14845 2052 ft 233 kts 216°
2026-04-26 13:40 51.39960 5.13284 1997 ft 233 kts 212°
2026-04-26 13:40 51.38445 5.12464 2000 ft 230 kts 179°
2026-04-26 13:41 51.36939 5.13095 2011 ft 226 kts 144°
2026-04-26 13:41 51.35792 5.14697 1974 ft 207 kts 129°
2026-04-26 13:41 51.34876 5.16283 2012 ft 188 kts 127°
2026-04-26 13:41 51.34006 5.17821 1996 ft 185 kts 128°
2026-04-26 13:42 51.33176 5.19386 1998 ft 184 kts 122°
2026-04-26 13:42 51.32812 5.21258 1980 ft 176 kts 83°
2026-04-26 13:42 51.33140 5.23130 1996 ft 176 kts 64°
2026-04-26 13:42 51.33821 5.24738 2002 ft 175 kts 47°
2026-04-26 13:43 51.34758 5.25955 1995 ft 174 kts 29°
2026-04-26 13:43 51.35772 5.27048 1997 ft 174 kts 35°
2026-04-26 13:43 51.36702 5.28120 1922 ft 160 kts 33°
2026-04-26 13:43 51.37579 5.29116 1733 ft 155 kts 34°
2026-04-26 13:44 51.38450 5.30098 1495 ft 148 kts 33°
2026-04-26 13:44 51.39259 5.31005 1309 ft 136 kts 33°
2026-04-26 13:44 51.40002 5.31838 1113 ft 125 kts 32°
2026-04-26 13:44 51.40689 5.32605 959 ft 117 kts 33°
2026-04-26 13:45 51.41354 5.33351 804 ft 119 kts 33°
2026-04-26 13:45 51.42032 5.34112 602 ft 115 kts 33°
2026-04-26 13:45 51.42688 5.34844 460 ft 117 kts 35°
2026-04-26 13:45 51.43356 5.35575 302 ft 116 kts 34°
2026-04-26 13:46 51.44010 5.36339 139 ft 116 kts 34°
2026-04-26 13:46 51.44651 5.37050 88 ft 102 kts 35°
2026-04-26 13:46 51.45306 5.37792 171 ft 152 kts 36°
2026-04-26 13:46 51.46295 5.38944 1019 ft 198 kts 37°
2026-04-26 13:47 51.47463 5.40336 1915 ft 213 kts 37°
2026-04-26 13:47 51.48685 5.41839 2402 ft 232 kts 38°
2026-04-26 13:47 51.50028 5.43371 2759 ft 243 kts 29°
2026-04-26 13:47 51.51646 5.43978 2973 ft 241 kts 359°
2026-04-26 13:48 51.53252 5.43213 3005 ft 245 kts 330°
2026-04-26 13:48 51.54426 5.41244 2999 ft 249 kts 301°
2026-04-26 13:48 51.54891 5.38575 3014 ft 252 kts 276°
2026-04-26 13:48 51.54912 5.35753 2990 ft 253 kts 262°
2026-04-26 13:49 51.54221 5.33166 2999 ft 254 kts 232°
2026-04-26 13:49 51.52958 5.31205 2998 ft 254 kts 219°
2026-04-26 13:49 51.51556 5.29443 2998 ft 254 kts 218°
2026-04-26 13:49 51.50158 5.27708 3000 ft 255 kts 218°
2026-04-26 13:50 51.48768 5.25981 2971 ft 255 kts 218°
2026-04-26 13:50 51.47355 5.24232 2568 ft 256 kts 218°
2026-04-26 13:50 51.45944 5.22498 2167 ft 255 kts 217°
2026-04-26 13:50 51.44544 5.20813 1995 ft 251 kts 217°
2026-04-26 13:51 51.43141 5.19105 2004 ft 254 kts 217°
2026-04-26 13:51 51.41735 5.17395 1998 ft 254 kts 217°
2026-04-26 13:51 51.40349 5.15701 1988 ft 253 kts 218°
2026-04-26 13:51 51.38936 5.14107 1983 ft 240 kts 208°
2026-04-26 13:52 51.37365 5.13519 1996 ft 231 kts 176°
2026-04-26 13:52 51.35905 5.14267 1982 ft 213 kts 142°
2026-04-26 13:52 51.34918 5.15868 1980 ft 193 kts 124°
2026-04-26 13:52 51.34139 5.17545 1984 ft 184 kts 123°
2026-04-26 13:53 51.33410 5.19222 1983 ft 183 kts 120°
2026-04-26 13:53 51.33092 5.21148 2004 ft 179 kts 82°
2026-04-26 13:53 51.33423 5.23033 1998 ft 176 kts 64°
2026-04-26 13:53 51.33997 5.24742 2001 ft 178 kts 54°
2026-04-26 13:54 51.34865 5.26124 2028 ft 176 kts 33°
2026-04-26 13:54 51.35890 5.27161 2022 ft 172 kts 32°
2026-04-26 13:54 51.36865 5.28298 1845 ft 174 kts 36°
2026-04-26 13:55 51.38777 5.30446 1358 ft 155 kts 35°
2026-04-26 13:55 51.39342 5.31081 1219 ft 145 kts 35°
2026-04-26 13:55 51.41083 5.33038 825 ft 119 kts 34°
2026-04-26 13:56 51.41757 5.33796 707 ft 117 kts 35°
2026-04-26 13:56 51.42461 5.34585 496 ft 123 kts 36°
2026-04-26 13:56 51.43156 5.35360 316 ft 119 kts 38°
2026-04-26 13:56 51.43802 5.36103 255 ft 104 kts 38°
2026-04-26 13:57 51.44327 5.36795 784 ft 99 kts 43°
2026-04-26 13:57 51.44926 5.37484 1118 ft 113 kts 35°
2026-04-26 13:57 51.45582 5.38177 1463 ft 116 kts 37°
2026-04-26 13:57 51.46298 5.39049 1859 ft 148 kts 36°
2026-04-26 13:58 51.47444 5.39448 2262 ft 193 kts 358°
2026-04-26 13:58 51.48795 5.38577 2779 ft 229 kts 327°
2026-04-26 13:58 51.49842 5.36615 2981 ft 236 kts 300°
2026-04-26 13:58 51.50257 5.34071 3010 ft 239 kts 278°
2026-04-26 13:59 51.50342 5.31391 2991 ft 240 kts 274°
2026-04-26 13:59 51.50361 5.28709 2994 ft 240 kts 272°
2026-04-26 13:59 51.50114 5.26058 2996 ft 243 kts 251°
2026-04-26 14:00 51.46549 5.20419 2996 ft 242 kts 218°
2026-04-26 14:00 51.45197 5.18788 3010 ft 243 kts 218°
2026-04-26 14:00 51.44297 5.17716 3006 ft 243 kts 218°
2026-04-26 14:01 51.42484 5.15544 3006 ft 245 kts 218°
2026-04-26 14:01 51.41094 5.13966 2798 ft 243 kts 212°
2026-04-26 14:01 51.39515 5.13194 2505 ft 234 kts 183°
2026-04-26 14:01 51.37991 5.13671 2317 ft 223 kts 153°
2026-04-26 14:02 51.36805 5.15142 2209 ft 211 kts 133°
2026-04-26 14:02 51.35859 5.16863 2115 ft 197 kts 128°
2026-04-26 14:02 51.35015 5.18479 1893 ft 185 kts 128°
2026-04-26 14:02 51.34211 5.20076 1627 ft 183 kts 126°
2026-04-26 14:03 51.33784 5.21959 1328 ft 183 kts 92°
2026-04-26 14:03 51.34062 5.23898 1212 ft 178 kts 68°
2026-04-26 14:03 51.34673 5.25609 1207 ft 177 kts 54°
2026-04-26 14:03 51.35555 5.26918 1189 ft 168 kts 33°
2026-04-26 14:04 51.36510 5.27872 1184 ft 156 kts 35°
2026-04-26 14:04 51.37374 5.28875 1197 ft 155 kts 37°
2026-04-26 14:04 51.38244 5.29867 1197 ft 153 kts 36°
2026-04-26 14:04 51.39118 5.30843 1198 ft 152 kts 37°
2026-04-26 14:05 51.39980 5.31811 1112 ft 151 kts 36°
2026-04-26 14:05 51.40848 5.32783 869 ft 153 kts 36°
2026-04-26 14:05 51.41714 5.33756 701 ft 149 kts 37°
2026-04-26 14:05 51.42552 5.34694 480 ft 144 kts 38°
2026-04-26 14:06 51.43335 5.35576 301 ft 131 kts 37°
2026-04-26 14:06 51.44049 5.36378 125 ft 121 kts 36°
2026-04-26 14:06 51.44695 5.37113 94 ft 105 kts 34°
2026-04-26 14:06 51.45331 5.37822 392 ft 138 kts 34°
2026-04-26 14:07 51.46291 5.38861 1101 ft 199 kts 34°
2026-04-26 14:07 51.47690 5.39782 1709 ft 240 kts
2026-04-26 14:07 51.49421 5.39443 2417 ft 256 kts 340°
2026-04-26 14:07 51.50868 5.37835 2847 ft 256 kts 313°
2026-04-26 14:08 51.51693 5.35310 2974 ft 260 kts 285°
2026-04-26 14:08 51.51909 5.32419 2965 ft 262 kts 274°
2026-04-26 14:08 51.51974 5.29507 2838 ft 259 kts 272°
2026-04-26 14:08 51.52018 5.26674 2640 ft 248 kts 272°
2026-04-26 14:09 51.52057 5.23955 2340 ft 243 kts 271°
2026-04-26 14:09 51.51920 5.21164 2025 ft 258 kts 264°
2026-04-26 14:09 51.51944 5.18260 1968 ft 260 kts 277°
2026-04-26 14:09 51.51948 5.15333 1968 ft 263 kts 265°
2026-04-26 14:10 51.51428 5.12517 1971 ft 265 kts 243°
2026-04-26 14:10 51.50211 5.10381 1990 ft 265 kts 212°
2026-04-26 14:10 51.48487 5.09473 1976 ft 262 kts 183°
2026-04-26 14:10 51.46717 5.09927 1977 ft 258 kts 158°
2026-04-26 14:11 51.43469 5.12347 1973 ft 250 kts 152°
2026-04-26 14:11 51.41959 5.13528 1963 ft 232 kts 153°
2026-04-26 14:11 51.40530 5.14661 1976 ft 228 kts 153°
2026-04-26 14:12 51.39110 5.15789 1969 ft 224 kts 152°
2026-04-26 14:12 51.37751 5.16834 1953 ft 209 kts 152°
2026-04-26 14:12 51.36498 5.17760 1966 ft 193 kts 153°
2026-04-26 14:12 51.35306 5.18665 1970 ft 187 kts 152°
2026-04-26 14:13 51.33371 5.21198 1971 ft 181 kts 105°
2026-04-26 14:13 51.33384 5.23129 1980 ft 176 kts 71°
2026-04-26 14:13 51.33998 5.24797 1972 ft 173 kts 50°
2026-04-26 14:14 51.34835 5.26040 1993 ft 156 kts 32°
2026-04-26 14:14 51.35737 5.26990 2032 ft 155 kts 36°
2026-04-26 14:14 51.36604 5.27997 1884 ft 154 kts 36°
2026-04-26 14:14 51.37479 5.28988 1673 ft 153 kts 34°
2026-04-26 14:15 51.38333 5.29946 1463 ft 147 kts 34°
2026-04-26 14:15 51.39154 5.30869 1286 ft 141 kts 36°
2026-04-26 14:15 51.39939 5.31753 1085 ft 134 kts 34°
2026-04-26 14:15 51.40689 5.32594 921 ft 130 kts 34°
2026-04-26 14:16 51.41431 5.33429 742 ft 130 kts 34°
2026-04-26 14:16 51.42155 5.34242 575 ft 123 kts 34°
2026-04-26 14:16 51.42831 5.35003 409 ft 113 kts 36°
2026-04-26 14:16 51.43486 5.35739 245 ft 117 kts 35°
2026-04-26 14:17 51.44143 5.36478 110 ft 113 kts 34°
2026-04-26 14:17 51.44755 5.37163 86 ft 97 kts 34°
2026-04-26 14:17 51.45445 5.37934 356 ft 152 kts 34°
2026-04-26 14:17 51.46455 5.39033 1198 ft 196 kts 33°
2026-04-26 14:18 51.47693 5.40319 1817 ft 229 kts 32°
2026-04-26 14:18 51.49075 5.41736 1972 ft 244 kts 33°
2026-04-26 14:18 51.50522 5.43202 1956 ft 246 kts 33°
2026-04-26 14:18 51.51973 5.44669 1975 ft 247 kts 32°
2026-04-26 14:19 51.53406 5.46181 1964 ft 246 kts 37°
2026-04-26 14:19 51.54430 5.48370 2147 ft 252 kts 69°
2026-04-26 14:19 51.54574 5.51199 3047 ft 262 kts 100°
2026-04-26 14:19 51.53825 5.53861 4332 ft 267 kts 125°
2026-04-26 14:20 51.52597 5.56188 5467 ft 276 kts 132°
2026-04-26 14:20 51.51299 5.58430 6703 ft 279 kts 133°
2026-04-26 14:20 51.49964 5.60728 7936 ft 284 kts 133°
2026-04-26 14:20 51.48525 5.62953 9200 ft 291 kts 144°
2026-04-26 14:21 51.46704 5.64420 10471 ft 295 kts 160°
2026-04-26 14:21 51.44707 5.65561 11318 ft 317 kts 162°
2026-04-26 14:21 51.42592 5.66701 12157 ft 319 kts 162°
2026-04-26 14:21 51.40520 5.67810 13364 ft 308 kts 163°
2026-04-26 14:22 51.38518 5.68894 14497 ft 299 kts 163°
2026-04-26 14:22 51.36652 5.70235 15381 ft 299 kts 150°
2026-04-26 14:22 51.34953 5.72264 16007 ft 310 kts 140°
2026-04-26 14:22 51.33326 5.74693 16277 ft 332 kts 135°
2026-04-26 14:23 51.31673 5.77494 16298 ft 355 kts 132°
2026-04-26 14:23 51.30011 5.80499 16294 ft 363 kts 131°
2026-04-26 14:23 51.28346 5.83563 16293 ft 365 kts 131°
2026-04-26 14:23 51.26698 5.86578 16289 ft 366 kts 131°
2026-04-26 14:24 51.25014 5.89618 16291 ft 366 kts 132°
2026-04-26 14:24 51.23306 5.92659 16290 ft 366 kts 132°
2026-04-26 14:24 51.21597 5.95673 16290 ft 366 kts 133°
2026-04-26 14:24 51.19881 5.98678 16292 ft 366 kts 133°
2026-04-26 14:25 51.18166 6.01673 16289 ft 366 kts 133°
2026-04-26 14:25 51.16468 6.04633 16288 ft 365 kts 133°
2026-04-26 14:25 51.14750 6.07626 16290 ft 365 kts 133°
2026-04-26 14:25 51.13042 6.10600 16289 ft 365 kts 133°
2026-04-26 14:26 51.11321 6.13596 16289 ft 365 kts 133°
2026-04-26 14:26 51.09606 6.16577 16290 ft 365 kts 133°
2026-04-26 14:26 51.07896 6.19548 16294 ft 364 kts 133°
2026-04-26 14:26 51.06787 6.21480 16290 ft 364 kts 133°
2026-04-26 14:27 51.05051 6.24487 16216 ft 364 kts 133°
2026-04-26 14:27 51.03321 6.27477 15630 ft 369 kts 133°
2026-04-26 14:27 51.01571 6.30499 14769 ft 374 kts 133°
2026-04-26 14:27 50.99805 6.33549 13962 ft 376 kts 133°
2026-04-26 14:28 50.98035 6.36601 13142 ft 375 kts 133°
2026-04-26 14:28 50.96269 6.39645 12363 ft 373 kts 133°
2026-04-26 14:28 50.94529 6.42639 11439 ft 362 kts 132°
2026-04-26 14:28 50.92831 6.45558 10123 ft 358 kts 132°
2026-04-26 14:29 50.91166 6.48418 9184 ft 342 kts 132°
2026-04-26 14:29 50.89633 6.51045 8658 ft 316 kts 132°
2026-04-26 14:29 50.88179 6.53536 7989 ft 302 kts 132°
2026-04-26 14:29 50.86771 6.55948 7182 ft 294 kts 132°
2026-04-26 14:30 50.85389 6.58314 6339 ft 289 kts 132°
2026-04-26 14:30 50.84030 6.60641 5478 ft 285 kts 132°
2026-04-26 14:30 50.82729 6.62927 4685 ft 279 kts 129°
2026-04-26 14:30 50.81741 6.65520 3893 ft 272 kts 114°
2026-04-26 14:31 50.80987 6.68205 3447 ft 265 kts 112°
2026-04-26 14:31 50.80263 6.70870 3104 ft 263 kts 112°
2026-04-26 14:31 50.79545 6.73510 3010 ft 258 kts 112°
2026-04-26 14:31 50.78833 6.76101 3030 ft 257 kts 112°
2026-04-26 14:32 50.78130 6.78696 3027 ft 256 kts 112°
2026-04-26 14:32 50.77425 6.81284 3034 ft 259 kts 111°
2026-04-26 14:32 50.76714 6.83888 3048 ft 257 kts 112°
2026-04-26 14:32 50.76007 6.86469 3015 ft 255 kts 112°
2026-04-26 14:33 50.75299 6.89035 3016 ft 256 kts 112°
2026-04-26 14:33 50.74583 6.91614 3022 ft 256 kts 112°
2026-04-26 14:33 50.73849 6.94195 2997 ft 258 kts 112°
2026-04-26 14:33 50.73131 6.96784 2993 ft 256 kts 112°
2026-04-26 14:34 50.72430 6.99334 2999 ft 257 kts 112°
2026-04-26 14:34 50.71717 7.01915 3004 ft 255 kts 112°
2026-04-26 14:34 50.71004 7.04493 2982 ft 258 kts 112°
2026-04-26 14:34 50.70277 7.07119 2931 ft 262 kts 112°
2026-04-26 14:35 50.69538 7.09754 2876 ft 263 kts 112°
2026-04-26 14:35 50.68796 7.12393 2891 ft 263 kts 112°
2026-04-26 14:35 50.68064 7.15027 2987 ft 258 kts 112°
2026-04-26 14:35 50.67344 7.17613 3002 ft 256 kts 112°
2026-04-26 14:36 50.66653 7.20090 2995 ft 240 kts 112°
2026-04-26 14:36 50.66006 7.22407 3002 ft 224 kts 112°
2026-04-26 14:36 50.65552 7.24727 3009 ft 221 kts 95°
2026-04-26 14:36 50.65714 7.27092 3003 ft 218 kts 69°
2026-04-26 14:37 50.66502 7.29100 3001 ft 215 kts 50°
2026-04-26 14:37 50.67387 7.31010 3001 ft 215 kts 53°
2026-04-26 14:37 50.68306 7.32869 2996 ft 215 kts 40°
2026-04-26 14:37 50.69662 7.33691 3007 ft 206 kts 359°
2026-04-26 14:38 50.71029 7.33574 3013 ft 188 kts 357°
2026-04-26 14:38 50.72306 7.33494 2994 ft 181 kts 358°
2026-04-26 14:38 50.73548 7.33325 3006 ft 182 kts 348°
2026-04-26 14:38 50.74676 7.32448 2999 ft 183 kts 321°
2026-04-26 14:39 50.75575 7.31010 2966 ft 184 kts 314°
2026-04-26 14:39 50.76522 7.29620 2721 ft 191 kts 320°
2026-04-26 14:39 50.77504 7.28232 2441 ft 185 kts 318°
2026-04-26 14:39 50.78415 7.26899 2182 ft 171 kts 319°
2026-04-26 14:40 50.79252 7.25682 1960 ft 154 kts 318°
2026-04-26 14:40 50.79993 7.24601 1763 ft 137 kts 318°
2026-04-26 14:40 50.80659 7.23630 1586 ft 123 kts 318°
2026-04-26 14:40 50.81222 7.22815 1463 ft 118 kts 318°
2026-04-26 14:41 50.81826 7.21934 1307 ft 118 kts 318°
2026-04-26 14:41 50.82429 7.21059 1149 ft 118 kts 319°
2026-04-26 14:41 50.83035 7.20179 1003 ft 118 kts 318°
2026-04-26 14:41 50.83633 7.19310 824 ft 115 kts 319°
2026-04-26 14:42 50.84231 7.18445 680 ft 118 kts 317°
2026-04-26 14:42 50.84835 7.17562 524 ft 119 kts 318°
2026-04-26 14:42 50.85438 7.16691 392 ft 117 kts 317°
2026-04-26 14:42 50.86030 7.15836 311 ft 110 kts 317°
2026-04-26 14:43 50.86533 7.15105 284 ft 75 kts 317°
2026-04-26 14:43 50.86724 7.14809 275 ft 17 kts 294°
2026-04-26 14:43 50.86701 7.14648 273 ft 26 kts 243°
2026-04-26 14:43 50.86617 7.14380 269 ft 27 kts 244°
2026-04-26 14:44 50.86532 7.14099 265 ft 30 kts 244°
2026-04-26 14:44 50.86439 7.13795 261 ft 32 kts 244°
2026-04-26 14:44 50.86341 7.13473 258 ft 33 kts 244°
2026-04-26 14:44 50.86248 7.13164 258 ft 33 kts 244°
2026-04-26 14:45 50.86152 7.12849 251 ft 23 kts 244°
2026-04-26 14:45 50.86103 7.12690 248 ft 22 kts 244°
2026-04-26 14:45 50.86079 7.12399 245 ft 20 kts 323°
2026-04-26 14:45 50.86220 7.12334 240 ft 24 kts 350°
2026-04-26 14:46 50.86347 7.12289 238 ft 8 kts 346°
2026-04-26 14:46 50.86388 7.12272 238 ft 1 kts 346°
2026-04-26 14:46 50.86408 7.12265 238 ft 6 kts 346°
2026-04-26 14:46 50.86466 7.12242 238 ft 11 kts 346°
2026-04-26 14:47 50.86510 7.12217 238 ft 4 kts 317°
2026-04-26 14:47 50.86518 7.12160 238 ft 7 kts 273°
2026-04-26 14:47 50.86511 7.12088 238 ft 0 kts 255°
2026-04-26 14:47 50.86508 7.12070 238 ft 4 kts 255°
2026-04-26 14:48 50.86506 7.12056 238 ft 0 kts 255°